| time (UTC) | temp F | wind direction | speed MPH | gust MPH | rain 1hr in | rain 24hr in | rain mn in | humidity % | barometer mb |
| 20260906110036 | 80 | 0 | 0.0 | 1.0 | 0.00 | 0.00 | 0.00 | 94 | 1009.9 |
| 20260906110028 | 80 | 53 | 0.0 | 1.0 | 0.00 | 0.00 | 0.00 | 95 | 1009.0 |
| 20260906104532 | 80 | 0 | 0.0 | 2.0 | 0.00 | 0.00 | 0.00 | 94 | 1009.9 |
| 20260906104527 | 80 | 53 | 0.0 | 1.0 | 0.00 | 0.00 | 0.00 | 95 | 1008.8 |
| 20260906103035 | 80 | 0 | 0.0 | 3.0 | 0.00 | 0.00 | 0.00 | 94 | 1009.6 |
| 20260906103026 | 80 | 51 | 0.0 | 3.0 | 0.00 | 0.00 | 0.00 | 95 | 1008.8 |
| 20260906101537 | 80 | 53 | 0.0 | 1.0 | 0.00 | 0.00 | 0.00 | 94 | 1009.5 |
| 20260906101526 | 80 | 54 | 0.0 | 2.0 | 0.00 | 0.00 | 0.00 | 95 | 1008.7 |
| 20260906100033 | 80 | 0 | 0.0 | 0.0 | 0.00 | 0.00 | 0.00 | 94 | 1009.6 |
| 20260906100024 | 80 | 55 | 0.0 | 0.0 | 0.00 | 0.00 | 0.00 | 95 | 1008.6 |
| 20260906094535 | 80 | 0 | 0.0 | 0.0 | 0.00 | 0.00 | 0.00 | 94 | 1009.5 |
| 20260906094525 | 80 | 55 | 0.0 | 0.0 | 0.00 | 0.00 | 0.00 | 94 | 1008.5 |
| 20260906093040 | 80 | 53 | 0.0 | 0.0 | 0.00 | 0.00 | 0.00 | 94 | 1008.4 |
| 20260906093037 | 80 | 0 | 0.0 | 0.0 | 0.00 | 0.00 | 0.00 | 94 | 1009.2 |
| 20260906091550 | 80 | 0 | 0.0 | 0.0 | 0.00 | 0.00 | 0.00 | 93 | 1009.1 |
| 20260906091524 | 80 | 50 | 0.0 | 0.0 | 0.00 | 0.00 | 0.00 | 94 | 1008.3 |
| 20260906090036 | 80 | 0 | 0.0 | 0.0 | 0.00 | 0.00 | 0.00 | 93 | 1009.4 |
| 20260906090022 | 80 | 50 | 0.0 | 0.0 | 0.00 | 0.00 | 0.00 | 94 | 1008.5 |
| 20260906084537 | 81 | 0 | 0.0 | 0.0 | 0.00 | 0.00 | 0.00 | 93 | 1009.6 |
| 20260906084522 | 81 | 34 | 0.0 | 0.0 | 0.00 | 0.00 | 0.00 | 93 | 1008.7 |
| 20260906083036 | 80 | 0 | 0.0 | 0.0 | 0.00 | 0.00 | 0.00 | 93 | 1009.3 |
| 20260906083022 | 80 | 49 | 0.0 | 0.0 | 0.00 | 0.00 | 0.00 | 93 | 1008.4 |
| 20260906081543 | 81 | 0 | 0.0 | 0.0 | 0.00 | 0.00 | 0.00 | 92 | 1009.5 |
| 20260906081536 | 81 | 49 | 0.0 | 0.0 | 0.00 | 0.00 | 0.00 | 93 | 1008.6 |
| 20260906080034 | 81 | 0 | 0.0 | 0.0 | 0.00 | 0.00 | 0.00 | 92 | 1009.6 |
| 20260906080018 | 81 | 50 | 0.0 | 0.0 | 0.00 | 0.00 | 0.00 | 92 | 1008.7 |
| 20260906074541 | 81 | 0 | 0.0 | 0.0 | 0.00 | 0.00 | 0.00 | 92 | 1009.6 |
| 20260906074516 | 81 | 360 | 0.0 | 0.0 | 0.00 | 0.00 | 0.00 | 92 | 1008.7 |
| 20260906073033 | 81 | 0 | 0.0 | 0.0 | 0.00 | 0.00 | 0.00 | 91 | 1009.7 |
| 20260906073031 | 81 | 53 | 0.0 | 0.0 | 0.00 | 0.00 | 0.00 | 92 | 1008.9 |
| 20260906071538 | 81 | 0 | 0.0 | 0.0 | 0.00 | 0.00 | 0.00 | 91 | 1009.7 |
| 20260906071514 | 81 | 55 | 0.0 | 0.0 | 0.00 | 0.00 | 0.00 | 91 | 1008.8 |
| 20260906070036 | 81 | 0 | 0.0 | 0.0 | 0.00 | 0.00 | 0.00 | 91 | 1009.7 |
| 20260906070015 | 81 | 53 | 0.0 | 0.0 | 0.00 | 0.00 | 0.00 | 91 | 1008.8 |
| 20260906064533 | 81 | 0 | 0.0 | 1.0 | 0.00 | 0.00 | 0.00 | 90 | 1009.7 |
| 20260906064512 | 81 | 51 | 0.0 | 1.0 | 0.00 | 0.00 | 0.00 | 91 | 1008.8 |
| 20260906063032 | 82 | 0 | 0.0 | 1.0 | 0.00 | 0.00 | 0.00 | 90 | 1009.7 |
| 20260906063012 | 82 | 54 | 0.0 | 0.0 | 0.00 | 0.00 | 0.00 | 91 | 1008.7 |
| 20260906061538 | 81 | 0 | 0.0 | 0.0 | 0.00 | 0.00 | 0.00 | 90 | 1009.7 |
| 20260906061511 | 81 | 51 | 0.0 | 0.0 | 0.00 | 0.00 | 0.00 | 90 | 1008.8 |
| 20260906060036 | 82 | 0 | 0.0 | 1.0 | 0.00 | 0.00 | 0.00 | 90 | 1009.7 |
| 20260906060009 | 82 | 48 | 0.0 | 0.0 | 0.00 | 0.00 | 0.00 | 90 | 1008.8 |
| 20260906054536 | 82 | 0 | 0.0 | 1.0 | 0.00 | 0.00 | 0.00 | 89 | 1009.7 |
| 20260906054512 | 82 | 53 | 0.0 | 1.0 | 0.00 | 0.00 | 0.00 | 90 | 1008.8 |
| 20260906053035 | 82 | 0 | 0.0 | 1.0 | 0.00 | 0.00 | 0.00 | 89 | 1010.0 |
| 20260906053007 | 82 | 55 | 0.0 | 1.0 | 0.00 | 0.00 | 0.00 | 89 | 1009.1 |
| 20260906051539 | 82 | 0 | 0.0 | 0.0 | 0.00 | 0.00 | 0.00 | 89 | 1010.2 |
| 20260906051503 | 82 | 53 | 0.0 | 0.0 | 0.00 | 0.00 | 0.00 | 89 | 1009.4 |
| 20260906050044 | 82 | 0 | 0.0 | 0.0 | 0.00 | 0.00 | 0.00 | 88 | 1010.5 |
| 20260906050002 | 82 | 54 | 0.0 | 0.0 | 0.00 | 0.00 | 0.00 | 89 | 1009.6 |
| 20260906044537 | 82 | 51 | 0.0 | 0.0 | 0.00 | 0.00 | 0.00 | 89 | 1010.4 |
| 20260906044501 | 82 | 51 | 0.0 | 0.0 | 0.00 | 0.00 | 0.00 | 89 | 1009.6 |
| 20260906043111 | 83 | 53 | 0.0 | 0.0 | 0.00 | 0.00 | 0.00 | 89 | 1009.8 |
| 20260906043035 | 83 | 0 | 0.0 | 0.0 | 0.00 | 0.00 | 0.00 | 88 | 1010.6 |
| 20260906041559 | 83 | 54 | 0.0 | 0.0 | 0.00 | 0.00 | 0.00 | 88 | 1009.8 |
| 20260906041536 | 83 | 0 | 0.0 | 0.0 | 0.00 | 0.00 | 0.00 | 88 | 1010.7 |
| 20260906040113 | 83 | 48 | 0.0 | 2.0 | 0.00 | 0.00 | 0.00 | 88 | 1009.8 |
| 20260906040037 | 83 | 0 | 0.0 | 2.0 | 0.00 | 0.00 | 0.00 | 87 | 1010.6 |
| 20260906034556 | 83 | 51 | 0.0 | 0.0 | 0.00 | 0.00 | 0.00 | 87 | 1009.7 |
| 20260906034535 | 83 | 0 | 0.0 | 2.0 | 0.00 | 0.00 | 0.00 | 87 | 1010.6 |
| 20260906033057 | 84 | 360 | 0.0 | 2.0 | 0.00 | 0.00 | 0.00 | 87 | 1010.0 |
| 20260906033045 | 84 | 0 | 0.0 | 2.0 | 0.00 | 0.00 | 0.00 | 87 | 1010.9 |
| 20260906031603 | 84 | 81 | 0.0 | 4.0 | 0.00 | 0.00 | 0.00 | 87 | 1010.2 |
| 20260906031539 | 84 | 0 | 0.0 | 4.0 | 0.00 | 0.00 | 0.00 | 87 | 1011.1 |
| 20260906030106 | 84 | 95 | 0.0 | 6.0 | 0.00 | 0.00 | 0.00 | 87 | 1009.7 |
| 20260906030032 | 84 | 0 | 0.0 | 6.0 | 0.00 | 0.00 | 0.00 | 86 | 1010.5 |
| 20260906024554 | 84 | 121 | 0.0 | 7.0 | 0.00 | 0.00 | 0.00 | 86 | 1009.3 |
| 20260906024535 | 84 | 0 | 0.0 | 7.0 | 0.00 | 0.00 | 0.00 | 86 | 1010.3 |
| 20260906023111 | 84 | 107 | 0.0 | 2.0 | 0.00 | 0.00 | 0.00 | 86 | 1009.0 |
| 20260906023036 | 84 | 0 | 0.0 | 2.0 | 0.00 | 0.00 | 0.00 | 86 | 1009.9 |
| 20260906021553 | 84 | 84 | 0.0 | 4.0 | 0.00 | 0.00 | 0.00 | 86 | 1009.2 |
| 20260906021536 | 84 | 0 | 0.0 | 4.0 | 0.00 | 0.00 | 0.00 | 85 | 1010.2 |
| 20260906020051 | 84 | 109 | 0.0 | 1.0 | 0.00 | 0.00 | 0.00 | 85 | 1009.5 |
| 20260906020039 | 84 | 0 | 0.0 | 6.0 | 0.00 | 0.00 | 0.00 | 84 | 1010.5 |
| 20260906014608 | 84 | 111 | 0.0 | 3.0 | 0.00 | 0.00 | 0.00 | 84 | 1009.6 |
| 20260906014537 | 84 | 0 | 0.0 | 3.0 | 0.00 | 0.00 | 0.00 | 84 | 1010.4 |
| 20260906013054 | 84 | 109 | 0.0 | 6.0 | 0.00 | 0.00 | 0.00 | 84 | 1009.4 |
| 20260906013037 | 84 | 111 | 0.0 | 6.0 | 0.00 | 0.00 | 0.00 | 83 | 1010.3 |
| 20260906011555 | 84 | 360 | 0.0 | 2.0 | 0.00 | 0.00 | 0.00 | 83 | 1009.2 |
| 20260906011539 | 84 | 360 | 0.0 | 2.0 | 0.00 | 0.00 | 0.00 | 82 | 1010.1 |
| 20260906010050 | 84 | 90 | 0.0 | 1.0 | 0.00 | 0.00 | 0.00 | 82 | 1009.3 |
| 20260906010038 | 84 | 0 | 0.0 | 4.0 | 0.00 | 0.00 | 0.00 | 82 | 1010.3 |
| 20260906004600 | 85 | 57 | 0.0 | 2.0 | 0.00 | 0.00 | 0.00 | 82 | 1009.6 |
| 20260906004537 | 85 | 360 | 0.0 | 2.0 | 0.00 | 0.00 | 0.00 | 81 | 1010.5 |
| 20260906003053 | 85 | 360 | 0.0 | 1.0 | 0.00 | 0.00 | 0.00 | 81 | 1009.6 |
| 20260906003033 | 85 | 0 | 0.0 | 1.0 | 0.00 | 0.00 | 0.00 | 80 | 1010.6 |
| 20260906001547 | 85 | 92 | 0.0 | 2.0 | 0.00 | 0.00 | 0.00 | 80 | 1009.8 |
| 20260906001535 | 85 | 0 | 0.0 | 2.0 | 0.00 | 0.00 | 0.00 | 80 | 1010.7 |
| 20260906000054 | 85 | 101 | 0.0 | 1.0 | 0.00 | 0.00 | 0.00 | 79 | 1009.6 |
| 20260906000037 | 85 | 0 | 0.0 | 3.0 | 0.00 | 0.00 | 0.00 | 79 | 1010.6 |
| 20260905234554 | 86 | 117 | 0.0 | 2.0 | 0.00 | 0.00 | 0.00 | 78 | 1009.4 |
| 20260905234537 | 86 | 0 | 0.0 | 4.0 | 0.00 | 0.00 | 0.00 | 78 | 1010.3 |
| 20260905233046 | 87 | 98 | 0.0 | 2.0 | 0.00 | 0.00 | 0.00 | 76 | 1009.5 |
| 20260905233042 | 87 | 0 | 0.0 | 2.0 | 0.00 | 0.00 | 0.00 | 76 | 1010.3 |
| 20260905231546 | 87 | 96 | 0.0 | 4.0 | 0.00 | 0.00 | 0.00 | 74 | 1009.1 |
| 20260905231533 | 87 | 0 | 0.0 | 4.0 | 0.00 | 0.00 | 0.00 | 73 | 1010.1 |
| 20260905230045 | 87 | 360 | 0.0 | 3.0 | 0.00 | 0.00 | 0.00 | 73 | 1009.0 |
| 20260905230040 | 87 | 0 | 0.0 | 3.0 | 0.00 | 0.00 | 0.00 | 73 | 1009.8 |
| 20260905224559 | 87 | 360 | 0.0 | 2.0 | 0.00 | 0.00 | 0.00 | 73 | 1009.1 |
| 20260905224549 | 87 | 0 | 0.0 | 5.0 | 0.00 | 0.00 | 0.00 | 73 | 1010.0 |
| 20260905223044 | 87 | 116 | 0.0 | 6.0 | 0.00 | 0.00 | 0.00 | 73 | 1009.1 |
| 20260905223033 | 87 | 0 | 0.0 | 6.0 | 0.00 | 0.00 | 0.00 | 72 | 1009.9 |
| 20260905221543 | 88 | 108 | 0.0 | 3.0 | 0.00 | 0.00 | 0.00 | 73 | 1009.1 |
| 20260905221534 | 88 | 0 | 0.0 | 3.0 | 0.00 | 0.00 | 0.00 | 73 | 1009.9 |
| 20260905220043 | 88 | 360 | 2.0 | 6.0 | 0.00 | 0.00 | 0.00 | 72 | 1009.3 |
| 20260905220039 | 88 | 360 | 1.0 | 7.0 | 0.00 | 0.00 | 0.00 | 72 | 1010.2 |
| 20260905214542 | 88 | 360 | 0.0 | 10.0 | 0.00 | 0.00 | 0.00 | 72 | 1009.2 |
| 20260905214532 | 88 | 0 | 0.0 | 10.0 | 0.00 | 0.00 | 0.00 | 72 | 1010.0 |
| 20260905213041 | 88 | 57 | 0.0 | 6.0 | 0.00 | 0.00 | 0.00 | 72 | 1009.2 |
| 20260905213035 | 88 | 0 | 0.0 | 6.0 | 0.00 | 0.00 | 0.00 | 71 | 1009.9 |
| 20260905211542 | 89 | 360 | 0.0 | 5.0 | 0.00 | 0.00 | 0.00 | 72 | 1009.1 |
| 20260905211534 | 89 | 360 | 0.0 | 5.0 | 0.00 | 0.00 | 0.00 | 71 | 1010.0 |
| 20260905210040 | 88 | 360 | 0.0 | 4.0 | 0.00 | 0.00 | 0.00 | 71 | 1009.1 |
| 20260905210035 | 88 | 0 | 0.0 | 4.0 | 0.00 | 0.00 | 0.00 | 71 | 1010.0 |
| 20260905204540 | 89 | 360 | 0.0 | 2.0 | 0.00 | 0.00 | 0.00 | 72 | 1008.8 |
| 20260905204535 | 88 | 360 | 0.0 | 5.0 | 0.00 | 0.00 | 0.00 | 71 | 1009.7 |
| 20260905203040 | 88 | 0 | 0.0 | 4.0 | 0.00 | 0.00 | 0.00 | 71 | 1009.5 |
| 20260905201541 | 89 | 360 | 1.0 | 7.0 | 0.00 | 0.00 | 0.00 | 69 | 1009.7 |
| 20260905201539 | 89 | 360 | 1.0 | 6.0 | 0.00 | 0.00 | 0.00 | 70 | 1008.7 |
| 20260905200049 | 89 | 360 | 0.0 | 5.0 | 0.00 | 0.00 | 0.00 | 69 | 1008.8 |
| 20260905200045 | 89 | 360 | 0.0 | 3.0 | 0.00 | 0.00 | 0.00 | 69 | 1009.7 |
| 20260905194537 | 89 | 360 | 0.0 | 5.0 | 0.00 | 0.00 | 0.00 | 69 | 1008.9 |
| 20260905194532 | 89 | 0 | 0.0 | 5.0 | 0.00 | 0.00 | 0.00 | 69 | 1009.8 |
| 20260905193035 | 89 | 360 | 0.0 | 4.0 | 0.00 | 0.00 | 0.00 | 69 | 1009.1 |
| 20260905191537 | 89 | 360 | 0.0 | 3.0 | 0.00 | 0.00 | 0.00 | 68 | 1009.5 |
| 20260905190044 | 89 | 360 | 0.0 | 2.0 | 0.00 | 0.00 | 0.00 | 69 | 1009.8 |
| 20260905190033 | 89 | 0 | 0.0 | 2.0 | 0.00 | 0.00 | 0.00 | 69 | 1010.6 |
| 20260905184536 | 89 | 47 | 0.0 | 3.0 | 0.00 | 0.00 | 0.00 | 69 | 1010.0 |
| 20260905183033 | 89 | 360 | 0.0 | 7.0 | 0.00 | 0.00 | 0.00 | 67 | 1011.0 |
| 20260905183026 | 89 | 88 | 1.0 | 7.0 | 0.00 | 0.00 | 0.00 | 68 | 1010.2 |
| 20260905181548 | 88 | 360 | 1.0 | 7.0 | 0.00 | 0.00 | 0.00 | 68 | 1011.2 |
| 20260905181526 | 88 | 83 | 2.0 | 7.0 | 0.00 | 0.00 | 0.00 | 69 | 1010.4 |
| 20260905180034 | 89 | 110 | 0.0 | 9.0 | 0.00 | 0.00 | 0.00 | 69 | 1011.6 |
| 20260905180023 | 89 | 360 | 1.0 | 9.0 | 0.00 | 0.00 | 0.00 | 69 | 1010.7 |
| 20260905174541 | 89 | 0 | 0.0 | 6.0 | 0.00 | 0.00 | 0.00 | 68 | 1011.9 |
| 20260905174521 | 89 | 114 | 0.0 | 4.0 | 0.00 | 0.00 | 0.00 | 69 | 1011.0 |
| 20260905173035 | 88 | 360 | 0.0 | 3.0 | 0.00 | 0.00 | 0.00 | 70 | 1012.2 |
| 20260905173021 | 88 | 360 | 0.0 | 3.0 | 0.00 | 0.00 | 0.00 | 71 | 1011.3 |
| 20260905171541 | 87 | 0 | 0.0 | 4.0 | 0.00 | 0.00 | 0.00 | 70 | 1012.3 |
| 20260905171518 | 87 | 96 | 0.0 | 4.0 | 0.00 | 0.00 | 0.00 | 70 | 1011.4 |
| 20260905170034 | 88 | 0 | 0.0 | 8.0 | 0.00 | 0.00 | 0.00 | 69 | 1012.4 |
| 20260905170019 | 88 | 360 | 0.0 | 8.0 | 0.00 | 0.00 | 0.00 | 69 | 1011.5 |
| 20260905164537 | 89 | 0 | 0.0 | 2.0 | 0.00 | 0.00 | 0.00 | 66 | 1012.7 |
| 20260905164527 | 89 | 360 | 0.0 | 2.0 | 0.00 | 0.00 | 0.00 | 66 | 1011.8 |
| 20260905163034 | 90 | 0 | 1.0 | 4.0 | 0.00 | 0.00 | 0.00 | 64 | 1012.8 |
| 20260905163017 | 90 | 30 | 0.0 | 4.0 | 0.00 | 0.00 | 0.00 | 64 | 1011.9 |
| 20260905161537 | 90 | 0 | 0.0 | 4.0 | 0.00 | 0.00 | 0.00 | 64 | 1012.9 |
| 20260905161517 | 90 | 360 | 0.0 | 4.0 | 0.00 | 0.00 | 0.00 | 64 | 1011.9 |
| 20260905160014 | 90 | 19 | 1.0 | 4.0 | 0.00 | 0.01 | 0.00 | 67 | 1012.2 |
| 20260905154539 | 89 | 0 | 0.0 | 3.0 | 0.00 | 0.01 | 0.00 | 67 | 1013.2 |
| 20260905154513 | 89 | 18 | 0.0 | 3.0 | 0.00 | 0.01 | 0.00 | 67 | 1012.2 |
| 20260905153036 | 88 | 0 | 0.0 | 4.0 | 0.00 | 0.01 | 0.00 | 68 | 1013.3 |
| 20260905153013 | 88 | 15 | 0.0 | 4.0 | 0.00 | 0.01 | 0.00 | 68 | 1012.3 |
| 20260905151537 | 88 | 15 | 1.0 | 5.0 | 0.00 | 0.01 | 0.00 | 70 | 1013.5 |
| 20260905151510 | 88 | 15 | 0.0 | 5.0 | 0.00 | 0.01 | 0.00 | 71 | 1012.5 |
| 20260905150034 | 86 | 15 | 0.0 | 5.0 | 0.00 | 0.01 | 0.00 | 70 | 1013.5 |
| 20260905150007 | 86 | 15 | 0.0 | 5.0 | 0.00 | 0.01 | 0.00 | 71 | 1012.5 |
| 20260905144536 | 86 | 18 | 2.0 | 4.0 | 0.00 | 0.01 | 0.00 | 73 | 1013.5 |
| 20260905144506 | 86 | 15 | 2.0 | 4.0 | 0.00 | 0.01 | 0.00 | 74 | 1012.6 |
| 20260905143036 | 85 | 0 | 0.0 | 4.0 | 0.00 | 0.01 | 0.00 | 76 | 1013.6 |
| 20260905143008 | 85 | 22 | 0.0 | 4.0 | 0.00 | 0.01 | 0.00 | 76 | 1012.5 |
| 20260905141541 | 85 | 23 | 2.0 | 4.0 | 0.00 | 0.01 | 0.00 | 77 | 1013.6 |
| 20260905141502 | 85 | 19 | 2.0 | 4.0 | 0.00 | 0.01 | 0.00 | 78 | 1012.6 |
| 20260905140107 | 84 | 26 | 1.0 | 3.0 | 0.00 | 0.01 | 0.00 | 81 | 1012.6 |
| 20260905140040 | 84 | 25 | 0.0 | 3.0 | 0.00 | 0.01 | 0.00 | 81 | 1013.6 |
| 20260905134557 | 83 | 26 | 0.0 | 4.0 | 0.00 | 0.01 | 0.00 | 84 | 1012.6 |
| 20260905134536 | 83 | 0 | 0.0 | 4.0 | 0.00 | 0.01 | 0.00 | 84 | 1013.6 |
| 20260905133100 | 81 | 25 | 0.0 | 3.0 | 0.00 | 0.01 | 0.00 | 86 | 1012.7 |
| 20260905133034 | 81 | 0 | 0.0 | 3.0 | 0.00 | 0.01 | 0.00 | 86 | 1013.6 |
| 20260905131606 | 80 | 20 | 0.0 | 4.0 | 0.00 | 0.01 | 0.00 | 89 | 1012.7 |
| 20260905131532 | 80 | 0 | 1.0 | 4.0 | 0.00 | 0.01 | 0.00 | 88 | 1013.7 |
| 20260905130053 | 80 | 25 | 0.0 | 1.0 | 0.00 | 0.01 | 0.00 | 90 | 1012.7 |
| 20260905130035 | 80 | 0 | 0.0 | 1.0 | 0.00 | 0.01 | 0.00 | 90 | 1013.6 |
| 20260905124553 | 80 | 24 | 0.0 | 2.0 | 0.00 | 0.01 | 0.00 | 90 | 1012.6 |
| 20260905124541 | 80 | 0 | 0.0 | 2.0 | 0.00 | 0.01 | 0.00 | 90 | 1013.5 |
| 20260905123054 | 80 | 26 | 0.0 | 3.0 | 0.00 | 0.01 | 0.00 | 90 | 1012.5 |
| 20260905123037 | 80 | 0 | 0.0 | 3.0 | 0.00 | 0.01 | 0.00 | 89 | 1013.5 |
| 20260905121554 | 80 | 19 | 0.0 | 4.0 | 0.00 | 0.01 | 0.00 | 90 | 1012.7 |
| 20260905121535 | 80 | 0 | 0.0 | 4.0 | 0.00 | 0.01 | 0.00 | 89 | 1013.5 |
| 20260905120058 | 80 | 20 | 0.0 | 4.0 | 0.00 | 0.01 | 0.00 | 89 | 1012.5 |
| 20260905120034 | 80 | 28 | 1.0 | 4.0 | 0.00 | 0.01 | 0.00 | 89 | 1013.4 |
| 20260905114551 | 80 | 26 | 0.0 | 2.0 | 0.00 | 0.01 | 0.00 | 89 | 1012.3 |
| 20260905114536 | 80 | 0 | 0.0 | 2.0 | 0.00 | 0.01 | 0.00 | 89 | 1013.1 |
| 20260905113050 | 80 | 26 | 1.0 | 3.0 | 0.00 | 0.01 | 0.00 | 89 | 1012.2 |
| 20260905113037 | 80 | 27 | 0.0 | 3.0 | 0.00 | 0.01 | 0.00 | 89 | 1013.2 |
| 20260905111607 | 80 | 30 | 1.0 | 3.0 | 0.00 | 0.01 | 0.00 | 90 | 1012.2 |
| 20260905111534 | 80 | 29 | 1.0 | 3.0 | 0.00 | 0.01 | 0.00 | 89 | 1013.0 |